Regional Weather Roundup
Issued by NWS Albany, NY

Home | Current Version | Previous Version | Text Only | Print | Product List | Glossary On
Versions: 1 2 3 4 5 6 7 8 9 10 11 12 13 14 15 16 17 18 19 20 21 22 23 24 25 26 27 28 29 30 31 32 33 34 35 36 37 38 39 40 41 42 43 44 45 46 47 48 49 50
000
ASUS41 KALY 260010
RWRALY

NEW YORK STATE HOURLY WEATHER ROUNDUP
NATIONAL WEATHER SERVICE ALBANY NY
700 PM EST TUE NOV 25 2014

NOTE: "FAIR" INDICATES FEW OR NO CLOUDS BELOW 12,000 FEET WITH NO
SIGNIFICANT WEATHER AND/OR NO OBSTRUCTIONS TO VISIBILITY.

NYZ032-033-038>043-046>054-057>066-NYZ062>081-260100-
EAST


CITY           SKY/WX    TMP DP  RH WIND       PRES   REMARKS
ALBANY         PTCLDY    38  25  59 SW7       30.02R WCI  33
GLENS FALLS    CLEAR     31  26  82 CALM      30.00R
POUGHKEEPSIE   PTCLDY    41  31  67 CALM      30.04R
MONTGOMERY     PTCLDY    38  29  70 CALM      30.04R
WHITE PLAINS   MOCLDY    48  29  47 SW3       30.04R
ISLIP          CLOUDY    46  34  62 SW5       30.04R
NEW YORK CITY  CLOUDY    53  28  38 W10       30.06R
CENTRAL PARK   MOCLDY    52  28  39 MISG      30.08R
$$

NYZ005>009-017-018-044>046-055-056-260100-
CENTRAL


CITY           SKY/WX    TMP DP  RH WIND       PRES   REMARKS
FULTON         CLOUDY    40  32  73 W20G29    30.07R WCI  30
SYRACUSE       CLOUDY    44  26  49 W10       30.06R
ROME           CLOUDY    41  28  60 W9        30.06R
ELMIRA         CLEAR     39  26  59 SW6       30.05R WCI  35
BINGHAMTON     CLEAR     40  24  53 SW7       30.02R
MONTICELLO     CLEAR     37  25  60 W5        30.04R WCI  34
$$

NYZ026>034-041>043-260100-
NORTH


CITY           SKY/WX    TMP DP  RH WIND       PRES   REMARKS
WATERTOWN      LGT RAIN  38  31  76 W21G30    30.04R WCI  28
FORT DRUM      NOT AVBL
MASSENA        CLOUDY    40  28  62 SW20G35   29.97R WCI  30
SARANAC LAKE   FLURRIES  34  30  85 W10G18    29.93R WCI  26
PLATTSBURGH    NOT AVBL
$$

NYZ001>004-010>016-019>021-260100-
WEST


CITY           SKY/WX    TMP DP  RH WIND       PRES   REMARKS
NIAGARA FALLS  CLOUDY    34  24  67 W14       30.10R WCI  25
BUFFALO        FLURRIES  34  27  75 W15G24    30.10R WCI  24
DUNKIRK        CLOUDY    37  28  70 W20G31    30.11R WCI  27
JAMESTOWN      CLOUDY    32  25  74 W16G24    30.09R WCI  21
WELLSVILLE     CLOUDY    37  23  56 W10G20    30.05R WCI  30
ROCHESTER      FLURRIES  36  31  82 W12G23    30.09R WCI  28
PENN YAN       CLOUDY    43  26  51 W9        30.06R
$$

             KEY
       WCI = WIND CHILL INDEX
       VSB = VISIBILITY
       HX  = HEAT INDEX
$$



USA.gov is the U.S. government's official web portal to all federal, state and local government web resources and services.